Location: Vale
(35.4830°N, 81.3830°W)
Time: 14:36:52
(UTC-04:00)

SR - All Passes

Search period start: 26 August 2016 00:00
Search period end: 05 September 2016 00:00
Orbit: 585 x 873 km, 66.7° (Epoch: 25 August)

Date Brightness Start Highest point End Pass type
(mag) Time Alt. Az. Time Alt. Az. Time Alt. Az.
26 Aug - 02:11:52 10° NNE 02:14:35 16° NE 02:17:22 10° E visible
26 Aug - 03:52:30 10° NW 03:56:48 49° WSW 04:01:24 10° S night (unlit)
26 Aug - 16:39:38 10° SSE 16:42:56 19° ESE 16:46:05 10° ENE daylight
26 Aug - 18:20:29 10° SW 18:24:43 35° WNW 18:28:45 10° N daylight
27 Aug - 03:03:08 10° NNW 03:07:33 71° ENE 03:12:17 10° SSE visible
27 Aug - 17:30:42 10° SSW 17:35:22 82° WNW 17:39:46 10° NNE daylight
28 Aug - 02:14:14 10° N 02:18:11 31° ENE 02:22:21 10° ESE visible
28 Aug - 03:56:32 10° WNW 04:00:03 23° WSW 04:03:45 10° SSW night (unlit)
28 Aug - 16:41:45 10° S 16:46:09 41° ESE 16:50:18 10° NE daylight
28 Aug - 18:25:14 10° W 18:28:17 18° NW 18:31:16 10° N daylight
29 Aug - 01:26:02 10° NNE 01:28:38 15° NE 01:31:19 10° E visible
29 Aug - 03:06:32 10° NW 03:10:53 52° WSW 03:15:33 10° S night (unlit)
29 Aug - 15:53:53 10° SSE 15:57:01 18° ESE 16:00:02 10° ENE daylight
29 Aug - 17:34:31 10° SW 17:38:47 37° WNW 17:42:51 10° N daylight
30 Aug - 02:17:12 10° NNW 02:21:38 67° ENE 02:26:23 10° SE night (unlit)
30 Aug - 04:03:06 10° WSW 04:03:11 10° WSW 04:03:16 10° WSW night (unlit)
30 Aug - 16:44:48 10° SSW 16:49:27 86° WNW 16:53:50 10° NNE daylight
31 Aug - 01:28:20 10° N 01:32:15 30° ENE 01:36:23 10° ESE visible
31 Aug - 03:10:30 10° WNW 03:14:08 24° WSW 03:17:58 10° SSW night (unlit)
31 Aug - 15:55:54 10° S 16:00:14 39° ESE 16:04:19 10° NE daylight
31 Aug - 17:39:12 10° W 17:42:21 18° NW 17:45:24 10° N daylight
01 Sep - 00:40:12 10° NNE 00:42:42 15° NE 00:45:16 10° E visible
01 Sep - 02:20:35 10° NW 02:24:58 55° WSW 02:29:41 10° S night (unlit)
01 Sep - 15:08:09 10° SSE 15:11:07 17° ESE 15:13:58 10° ENE daylight
01 Sep - 16:48:34 10° SW 16:52:52 38° WNW 16:56:56 10° N daylight
02 Sep - 01:31:16 10° NNW 01:35:42 64° ENE 01:40:27 10° SE night (unlit)
02 Sep - 03:16:09 10° W 03:17:17 11° WSW 03:18:26 10° WSW night (unlit)
02 Sep - 15:58:54 10° SSW 16:03:32 89° ESE 16:07:53 10° NNE daylight
03 Sep - 00:42:26 10° N 00:46:19 29° ENE 00:50:25 10° ESE visible
03 Sep - 02:24:30 10° NW 02:28:14 25° WSW 02:32:10 10° SSW night (unlit)
03 Sep - 15:10:04 10° S 15:14:18 37° ESE 15:18:20 10° NE daylight
03 Sep - 16:53:11 10° W 16:56:24 19° NW 16:59:31 10° N daylight
03 Sep - 23:54:21 10° NNE 23:56:45 14° NE 23:59:12 10° E visible
04 Sep - 01:34:37 10° NW 01:39:03 58° WSW 01:43:49 10° SSE night (unlit)
04 Sep - 14:22:25 10° SE 14:25:13 16° ESE 14:27:54 10° ENE daylight
04 Sep - 16:02:37 10° SW 16:06:55 40° WNW 16:11:01 10° NNE daylight
